| time (UTC) | temp F | wind direction | speed knots | gust knots | rain 1hr in | rain 24hr in | rain mn in | humidity % | barometer mb |
| 20260504081036 | 49 | 282 | 0.9 | 2.6 | 0.00 | 0.00 | 0.00 | 86 | 1015.2 |
| 20260504050016 | 53 | 300 | 0.9 | 4.3 | 0.00 | 0.00 | 0.00 | 75 | 1014.8 |
| 20260504045037 | 53 | 277 | 0.0 | 1.7 | 0.00 | 0.00 | 0.00 | 74 | 1014.7 |
| 20260504044036 | 53 | 279 | 0.9 | 4.3 | 0.00 | 0.00 | 0.00 | 73 | 1014.5 |
| 20260504043016 | 54 | 304 | 0.9 | 2.6 | 0.00 | 0.00 | 0.00 | 71 | 1014.5 |
| 20260504042017 | 54 | 345 | 0.9 | 2.6 | 0.00 | 0.00 | 0.00 | 71 | 1014.3 |
| 20260504041017 | 54 | 349 | 1.7 | 5.2 | 0.00 | 0.00 | 0.00 | 70 | 1014.2 |
| 20260504040017 | 54 | 339 | 2.6 | 7.0 | 0.00 | 0.00 | 0.00 | 69 | 1014.1 |
| 20260504035018 | 54 | 328 | 2.6 | 9.6 | 0.00 | 0.00 | 0.00 | 71 | 1013.8 |
| 20260504034018 | 55 | 334 | 2.6 | 7.8 | 0.00 | 0.00 | 0.00 | 71 | 1013.8 |
| 20260504033018 | 55 | 352 | 1.7 | 6.1 | 0.00 | 0.00 | 0.00 | 70 | 1013.7 |
| 20260504032017 | 55 | 332 | 3.5 | 7.8 | 0.00 | 0.00 | 0.00 | 68 | 1013.4 |
| 20260504031018 | 56 | 330 | 3.5 | 7.8 | 0.00 | 0.00 | 0.00 | 67 | 1013.3 |
| 20260504030018 | 56 | 318 | 2.6 | 6.1 | 0.00 | 0.00 | 0.00 | 66 | 1013.3 |
| 20260504025018 | 56 | 351 | 1.7 | 5.2 | 0.00 | 0.00 | 0.00 | 65 | 1013.3 |
| 20260504024017 | 57 | 322 | 2.6 | 7.0 | 0.00 | 0.00 | 0.00 | 63 | 1013.1 |
| 20260504023015 | 58 | 327 | 1.7 | 5.2 | 0.00 | 0.00 | 0.00 | 63 | 1013.1 |
| 20260504022016 | 59 | 332 | 1.7 | 5.2 | 0.00 | 0.00 | 0.00 | 62 | 1013.0 |
| 20260504021016 | 60 | 327 | 1.7 | 4.3 | 0.00 | 0.00 | 0.00 | 61 | 1013.0 |
| 20260504020037 | 61 | 331 | 1.7 | 5.2 | 0.00 | 0.00 | 0.00 | 59 | 1013.0 |
| 20260504015016 | 62 | 316 | 0.9 | 2.6 | 0.00 | 0.00 | 0.00 | 58 | 1013.0 |
| 20260504014019 | 63 | 323 | 0.9 | 3.5 | 0.00 | 0.00 | 0.00 | 55 | 1013.1 |
| 20260504013017 | 65 | 333 | 1.7 | 5.2 | 0.00 | 0.00 | 0.00 | 52 | 1013.2 |
| 20260504012118 | 65 | 306 | 0.9 | 3.5 | 0.00 | 0.00 | 0.00 | 50 | 1013.2 |
| 20260504011017 | 67 | 308 | 2.6 | 6.1 | 0.00 | 0.00 | 0.00 | 49 | 1013.2 |
| 20260504010017 | 66 | 320 | 0.9 | 3.5 | 0.00 | 0.00 | 0.00 | 48 | 1013.2 |
| 20260504005018 | 66 | 0 | 1.7 | 6.1 | 0.00 | 0.00 | 0.00 | 48 | 1013.2 |
| 20260504004038 | 66 | 315 | 1.7 | 7.0 | 0.00 | 0.00 | 0.00 | 48 | 1013.2 |
| 20260504003018 | 66 | 318 | 0.9 | 3.5 | 0.00 | 0.00 | 0.00 | 48 | 1013.1 |
| 20260504002018 | 65 | 327 | 1.7 | 7.8 | 0.00 | 0.00 | 0.00 | 49 | 1013.0 |
| 20260504001056 | 66 | 336 | 2.6 | 5.2 | 0.00 | 0.00 | 0.00 | 49 | 1013.0 |
| 20260504000018 | 65 | 338 | 0.9 | 5.2 | 0.00 | 0.00 | 0.00 | 50 | 1012.9 |
| 20260503235016 | 66 | 323 | 2.6 | 6.1 | 0.00 | 0.00 | 0.00 | 50 | 1012.9 |
| 20260503234016 | 66 | 318 | 1.7 | 5.2 | 0.00 | 0.00 | 0.00 | 50 | 1012.9 |
| 20260503233016 | 65 | 333 | 1.7 | 6.1 | 0.00 | 0.00 | 0.00 | 52 | 1012.9 |
| 20260503232016 | 65 | 320 | 1.7 | 7.0 | 0.00 | 0.00 | 0.00 | 53 | 1013.1 |
| 20260503231037 | 65 | 336 | 1.7 | 7.0 | 0.00 | 0.00 | 0.00 | 54 | 1013.1 |
| 20260503230016 | 64 | 324 | 1.7 | 7.0 | 0.00 | 0.00 | 0.00 | 56 | 1013.1 |
| 20260503225017 | 65 | 333 | 2.6 | 7.0 | 0.00 | 0.00 | 0.00 | 56 | 1013.2 |
| 20260503224017 | 66 | 11 | 0.9 | 6.1 | 0.00 | 0.00 | 0.00 | 55 | 1013.3 |
| 20260503223038 | 66 | 28 | 0.9 | 6.1 | 0.00 | 0.00 | 0.00 | 53 | 1013.3 |
| 20260503222017 | 66 | 8 | 1.7 | 7.8 | 0.00 | 0.00 | 0.00 | 53 | 1013.3 |
| 20260503221021 | 65 | 325 | 1.7 | 6.1 | 0.00 | 0.00 | 0.00 | 54 | 1013.2 |
| 20260503220043 | 64 | 307 | 1.7 | 7.0 | 0.00 | 0.00 | 0.00 | 56 | 1013.2 |
| 20260503215017 | 63 | 329 | 0.9 | 4.3 | 0.00 | 0.00 | 0.00 | 57 | 1013.3 |
| 20260503214018 | 63 | 335 | 0.9 | 3.5 | 0.00 | 0.00 | 0.00 | 58 | 1013.4 |
| 20260503213018 | 63 | 327 | 0.9 | 5.2 | 0.00 | 0.00 | 0.00 | 58 | 1013.4 |
| 20260503212038 | 62 | 339 | 0.9 | 4.3 | 0.00 | 0.00 | 0.00 | 59 | 1013.4 |
| 20260503211036 | 63 | 316 | 2.6 | 7.8 | 0.00 | 0.00 | 0.00 | 58 | 1013.4 |
| 20260503210016 | 64 | 317 | 0.9 | 5.2 | 0.00 | 0.00 | 0.00 | 56 | 1013.4 |
| 20260503205015 | 64 | 318 | 0.9 | 3.5 | 0.00 | 0.00 | 0.00 | 57 | 1013.4 |
| 20260503204016 | 64 | 326 | 1.7 | 7.0 | 0.00 | 0.00 | 0.00 | 57 | 1013.4 |
| 20260503203017 | 65 | 303 | 1.7 | 6.1 | 0.00 | 0.00 | 0.00 | 55 | 1013.4 |
| 20260503202017 | 66 | 75 | 1.7 | 5.2 | 0.00 | 0.00 | 0.00 | 54 | 1013.5 |
| 20260503201018 | 66 | 7 | 0.9 | 5.2 | 0.00 | 0.00 | 0.00 | 54 | 1013.6 |
| 20260503200017 | 65 | 320 | 0.9 | 6.1 | 0.00 | 0.00 | 0.00 | 55 | 1013.6 |
| 20260503195017 | 64 | 325 | 0.9 | 2.6 | 0.00 | 0.00 | 0.00 | 56 | 1013.6 |
| 20260503194037 | 64 | 327 | 0.9 | 2.6 | 0.00 | 0.00 | 0.00 | 56 | 1013.6 |
| 20260503193018 | 64 | 328 | 1.7 | 5.2 | 0.00 | 0.00 | 0.00 | 56 | 1013.6 |
| 20260503192038 | 63 | 54 | 0.9 | 2.6 | 0.00 | 0.00 | 0.00 | 57 | 1013.7 |
| 20260503191018 | 64 | 319 | 1.7 | 6.1 | 0.00 | 0.00 | 0.00 | 57 | 1013.6 |
| 20260503190018 | 64 | 21 | 1.7 | 6.1 | 0.00 | 0.00 | 0.00 | 56 | 1013.7 |
| 20260503185015 | 63 | 314 | 0.9 | 3.5 | 0.00 | 0.00 | 0.00 | 55 | 1013.6 |
| 20260503184016 | 63 | 19 | 1.7 | 6.1 | 0.00 | 0.00 | 0.00 | 56 | 1013.7 |
| 20260503183019 | 61 | 33 | 0.9 | 3.5 | 0.00 | 0.00 | 0.00 | 61 | 1013.8 |
| 20260503182015 | 60 | 332 | 0.9 | 3.5 | 0.00 | 0.00 | 0.00 | 64 | 1013.8 |
| 20260503181016 | 60 | 304 | 1.7 | 7.0 | 0.00 | 0.00 | 0.00 | 65 | 1013.8 |
| 20260503180016 | 60 | 332 | 1.7 | 3.5 | 0.00 | 0.00 | 0.00 | 63 | 1013.8 |
| 20260503175036 | 60 | 311 | 2.6 | 7.0 | 0.00 | 0.00 | 0.00 | 66 | 1013.8 |
| 20260503174016 | 58 | 310 | 1.7 | 4.3 | 0.00 | 0.00 | 0.00 | 69 | 1013.7 |
| 20260503173016 | 57 | 305 | 0.9 | 4.3 | 0.00 | 0.00 | 0.00 | 73 | 1013.7 |
| 20260503172017 | 56 | 314 | 0.9 | 3.5 | 0.00 | 0.00 | 0.00 | 76 | 1013.8 |
| 20260503171017 | 56 | 322 | 1.7 | 4.3 | 0.00 | 0.00 | 0.00 | 79 | 1013.8 |
| 20260503131018 | 53 | 319 | 0.9 | 2.6 | 0.00 | 0.00 | 0.00 | 79 | 1012.0 |